Other Surface Observations
Issued by NWS

Home | Current Version | Previous Version | Text Only | Print | Product List | Glossary On
Versions: 1 2 3 4 5 6 7 8 9 10 11 12 13 14 15 16 17 18 19 20 21 22 23 24 25 26 27 28 29 30 31 32 33 34 35 36 37 38 39 40 41 42 43 44 45 46 47 48 49 50
000
SXUS52 KTAE 251618
OSOTAE
OSOTAE
North Florida/South Alabama/Southwest Georgia Weather Roundup
National Weather Service Tallahassee Florida
1100 AM EST THU DEC 25 2014

Note: "fair" indicates few or no clouds below 12,000 feet with no
significant weather and/or obstructions to visibility.

!FLZ017-115-028-034-025-251700
...North Florida...

CITY           SKY/WX    TMP DP  RH WIND       PRES   REMARKS
TALLAHASSEE    MOSUNNY   54  36  50 N9        30.26R
APALACHICOLA   SUNNY     57  38  48 N10       30.26R
PERRY          PTSUNNY   53  38  55 NW8       30.27R
CROSS CITY       N/A     55  46  71 N8        30.24R
JACKSONVILLE   CLOUDY    55  48  77 NW8       30.22R
$$

!FLZ112-006-005-002-011-251700
...Florida Panhandle...

CITY           SKY/WX    TMP DP  RH WIND       PRES   REMARKS
MARIANNA       SUNNY     51  38  60 VRB7      30.27R
BONIFAY        NOT AVBL
PANAMA CITY NW FAIR      50  38  63 NW10      30.27S
TYNDALL AFB    SUNNY     52  48  86 N9        30.28R
TYND DRONE APT FAIR      52  40  63 N10       30.26R
DE FUNIAK SPR  FAIR      48  36  61 N10       30.29R WCI  44
EGLIN AFB      SUNNY     51  36  57 N12       30.29R
DESTIN         SUNNY     51  38  60 N8        30.29R
HURLBURT       SUNNY     51  33  48 NW9       30.28R
CRESTVIEW      SUNNY     50  37  61 N6        30.31R
PENSACOLA      SUNNY     50  37  61 N5        30.29R
$$

!ALZ063-066-251700
...South Alabama...

CITY           SKY/WX    TMP DP  RH WIND       PRES   REMARKS
DOTHAN         SUNNY     48  37  65 NW9       30.30R WCI  44
OZARK CAIRNS   SUNNY     48  36  61 N9        30.28R WCI  44
FT RUCKER HELI SUNNY     49  36  61 VRB3      30.27R
RUCKER HELI 3  FAIR      49  37  65 VRB7      30.30R
RUCKER HELI 2  FAIR      49  36  61 NW9       30.29R WCI  45
FLORALA APT    SUNNY     50  39  66 N5        30.30R
ANDALUSIA      SUNNY     52  38  58 VRB5      30.29R
TROY           SUNNY     48  37  65 VRB6      30.29R
EUFALA         FAIR      50  37  61 CALM      30.27R
MOBILE         SUNNY     47  36  65 CALM      30.29F
$$

!GAZ120>161-251700
...Southwest and South Central Georgia...

CITY           SKY/WX    TMP DP  RH WIND       PRES   REMARKS
THOMASVILLE    FAIR      52  37  58 N7        30.26S
BAINBRIDGE     SUNNY     54  39  58 N7        30.28R
MOODY AFB      MOSUNNY   51  41  67 NW9       30.24R
VALDOSTA       PTSUNNY   52  40  63 VRB5      30.25R
MOULTRIE       SUNNY     50  39  66 NW6       30.26R
BLAKELY        SUNNY     52  41  66 NW5       30.27S
ALBANY         SUNNY     51  36  56 N7        30.28R
TIFTON         FAIR      50  37  60 NW9       30.24R
FITZGERALD     FAIR      53  34  49 NW8       30.26R
CORDELE        FAIR      51  36  55 NW7       30.26R
AMERICUS       FAIR      46  37  71 NW9       30.27R WCI  42
HOMERVILLE     FAIR      54  45  71 NW7       30.24R
$$

!GMZ750-755-770-775-251700
...Coastal and Buoy Obs...

STATION/POSITION TIME  TEMP    WIND        PRES    VSBY  WAVE
                       AIR SEA DIR/SP/G                  HT/PER
                 (UTC) (F)     (DEG/KT/KT) (MB)    (MI)  (FT/S)
KEATON BEACH     1600   53     360/  4/  8 1024.4R
CEDAR KEY        1600   56     340/  5/  6 1024.3R
C TOWER          1600   50     360/ 13/ 16 1024.5R
APALACHICOLA BUO 1600   60 71  360/ 14/ 17 1023.7R         6/ 8
PANAMA CITY BUOY 1547   58 74  350/ 14/ 19 1024.5R         6/ 8
MOBILE BUOY      1600   53 73  360/  8/ 12 1025.2R         4/ 8
ORANGE BCH AL BU 1600   51 67  340/  6/ 10 1025.4R         3/ 8
$$



USA.gov is the U.S. government's official web portal to all federal, state and local government web resources and services.